{"data":{"norad_id":57232,"intl_designator":"2023-094Q","name":"STARLINK-5872","alt_names":[],"object_type":"PAYLOAD","status":"ACTIVE","operator":null,"country":"US","launch_date":"2023-07-07","launch_site_code":"AFWTR","launch_vehicle":null,"mission":null,"orbit_class":"UNKNOWN","rcs_meters":null,"size_class":null,"mass_kg":null,"dimensions":null,"purposes":["comms"],"wikipedia_slug":null,"has_3d_model":false,"image_url":null,"decayed_at":null,"tle_current":{"epoch":"2026-09-20T14:27:13.984416Z","epoch_age_seconds":115336,"freshness":"FRESH","line1":"1 57232U 23094Q   26263.60224519  .00000225  00000+0  17704-4 0  9996","line2":"2 57232  43.0031  10.0481 0001179 271.3364  88.7353 15.27581640177581","mean_motion":15.2758164,"eccentricity":0.0001179,"inclination_deg":43.0031,"raan_deg":10.0481,"arg_perigee_deg":271.3364,"mean_anomaly_deg":88.7353,"bstar":1.7704e-5,"rev_number":17758,"period_min":94.266647509589,"perigee_km":482.23525203231,"apogee_km":483.85311855581,"semimajor_km":6861.1811852941,"source":"CELESTRAK","updated_at":"2026-09-21T09:00:33.586602Z"}}}